,,Stat5,,Stat1,,Stat2,,Stat3,,Stat4,,Wind1,,Wind1,
time,status,PA1M_AVG,status,PR1M_SUM,status,RH1M_AVG,status,SR1M_AVG,status,TA1M_AVG,status,W1dAve1m,status,W1sAve1m,
2002-11-17, 00:00:01,VALID,917.999,VALID,0,VALID,98.1666,VALID,0,VALID,19.8056,VALID,4,VALID,0.0905449,
2002-11-17, 00:01:00,VALID,917.999,VALID,0,VALID,98.1259,VALID,0,VALID,19.7956,VALID,4,VALID,0.102865,
2002-11-17, 00:02:00,VALID,918,VALID,0,VALID,98.1463,VALID,0,VALID,19.7795,VALID,4,VALID,0.077691,
2002-11-17, 00:03:00,VALID,918.005,VALID,0,VALID,98.1374,VALID,0,VALID,19.773,VALID,48,VALID,0.354779,
2002-11-17, 00:04:00,VALID,918.022,VALID,0,VALID,98.1272,VALID,0.0339617,VALID,19.7663,VALID,142,VALID,0.535256,
2002-11-17, 00:05:00,VALID,918.027,VALID,0,VALID,98.0852,VALID,0.0339617,VALID,19.7631,VALID,157,VALID,0.728348,
2002-11-17, 00:06:00,VALID,918.033,VALID,0,VALID,98.0941,VALID,0.0339617,VALID,19.7472,VALID,164,VALID,0.703125,
2002-11-17, 00:07:00,VALID,918.021,VALID,0,VALID,98.1106,VALID,0.0339617,VALID,19.7474,VALID,172,VALID,0.725911,
2002-11-17, 00:08:00,VALID,918.008,VALID,0,VALID,98.1348,VALID,0.0169808,VALID,19.7241,VALID,172,VALID,0.545982,
2002-11-17, 00:09:00,VALID,917.995,VALID,0,VALID,98.1653,VALID,0,VALID,19.7276,VALID,171,VALID,0.45653,
2002-11-17, 00:10:00,VALID,917.989,VALID,0,VALID,98.1895,VALID,0.0509425,VALID,19.7213,VALID,157,VALID,0.533548,
2002-11-17, 00:11:00,VALID,918.004,VALID,0,VALID,98.2785,VALID,0.0169808,VALID,19.7246,VALID,159,VALID,0.477564,
2002-11-17, 00:12:00,VALID,918.018,VALID,0,VALID,98.2671,VALID,0.0169808,VALID,19.7377,VALID,158,VALID,0.480357,
2002-11-17, 00:13:00,VALID,918.013,VALID,0,VALID,98.2454,VALID,0.0679233,VALID,19.7216,VALID,158,VALID,0.324777,
2002-11-17, 00:14:00,VALID,918.007,VALID,0,VALID,98.262,VALID,0,VALID,19.7181,VALID,158,VALID,0.0900608,
2002-11-17, 00:15:00,VALID,918.005,VALID,0,VALID,98.2734,VALID,0.0169808,VALID,19.7082,VALID,158,VALID,0.0729911,
2002-11-17, 00:16:00,VALID,918.025,VALID,0,VALID,98.2225,VALID,0,VALID,19.7084,VALID,158,VALID,0.270032,
2002-11-17, 00:17:00,VALID,918.041,VALID,0,VALID,98.178,VALID,0,VALID,19.6957,VALID,127,VALID,0.380744,
2002-11-17, 00:18:00,VALID,918.055,VALID,0,VALID,98.1793,VALID,0.0339617,VALID,19.6858,VALID,113,VALID,0.375601,
2002-11-17, 00:19:00,VALID,918.071,VALID,0,VALID,98.206,VALID,0.0169808,VALID,19.6826,VALID,110,VALID,0.314955,
2002-11-17, 00:20:00,VALID,918.084,VALID,0,VALID,98.2607,VALID,-0.0509425,VALID,19.6868,VALID,97,VALID,0.314955,
2002-11-17, 00:21:00,VALID,918.101,VALID,0,VALID,98.2747,VALID,-0.0849042,VALID,19.7037,VALID,89,VALID,0.274306,
2002-11-17, 00:22:00,VALID,918.12,VALID,0,VALID,98.2518,VALID,-0.101885,VALID,19.7099,VALID,83,VALID,0.235714,
2002-11-17, 00:23:00,VALID,918.123,VALID,0,VALID,98.2632,VALID,-0.101885,VALID,19.733,VALID,71,VALID,0.294071,
2002-11-17, 00:24:00,VALID,918.124,VALID,0,VALID,98.2658,VALID,-0.101885,VALID,19.7363,VALID,50,VALID,0.380974,
2002-11-17, 00:25:00,VALID,918.129,VALID,0,VALID,98.1895,VALID,-0.0679233,VALID,19.743,VALID,23,VALID,0.712941,
2002-11-17, 00:26:00,VALID,918.12,VALID,0,VALID,98.1437,VALID,-0.0679233,VALID,19.7231,VALID,13,VALID,0.970759,
2002-11-17, 00:27:00,VALID,918.112,VALID,0,VALID,98.1183,VALID,-0.0679233,VALID,19.7171,VALID,13,VALID,0.99308,
2002-11-17, 00:28:00,VALID,918.086,VALID,0,VALID,98.0979,VALID,-0.101885,VALID,19.6811,VALID,13,VALID,1.1276,
2002-11-17, 00:29:00,VALID,918.079,VALID,0,VALID,98.1412,VALID,-0.101885,VALID,19.662,VALID,12,VALID,1.175,
2002-11-17, 00:30:00,VALID,918.046,VALID,0,VALID,98.2149,VALID,-0.101885,VALID,19.6555,VALID,15,VALID,0.744792,
2002-11-17, 00:31:00,VALID,918.01,VALID,0,VALID,98.2963,VALID,-0.101885,VALID,19.662,VALID,16,VALID,0.49977,
2002-11-17, 00:32:00,VALID,917.981,VALID,0,VALID,98.3294,VALID,-0.0849042,VALID,19.6654,VALID,17,VALID,0.5,
2002-11-17, 00:33:00,VALID,917.961,VALID,0,VALID,98.3993,VALID,-0.101885,VALID,19.6617,VALID,34,VALID,0.494196,
2002-11-17, 00:34:00,VALID,917.924,VALID,0,VALID,98.4082,VALID,-0.101885,VALID,19.6875,VALID,51,VALID,0.54308,
2002-11-17, 00:35:00,VALID,917.886,VALID,0,VALID,98.3828,VALID,-0.0849042,VALID,19.6875,VALID,53,VALID,0.474826,
2002-11-17, 00:36:00,VALID,917.863,VALID,0,VALID,98.3344,VALID,-0.0169808,VALID,19.6873,VALID,61,VALID,0.341964,
2002-11-17, 00:37:00,VALID,917.833,VALID,0,VALID,98.3306,VALID,-0.0509425,VALID,19.6908,VALID,73,VALID,0.521034,
2002-11-17, 00:38:00,VALID,917.831,VALID,0,VALID,98.3268,VALID,-0.0679233,VALID,19.6875,VALID,91,VALID,0.563419,
2002-11-17, 00:39:00,VALID,917.823,VALID,0,VALID,98.3484,VALID,-0.0509425,VALID,19.6741,VALID,103,VALID,0.660056,
2002-11-17, 00:40:00,VALID,917.806,VALID,0,VALID,98.3573,VALID,-0.101885,VALID,19.6749,VALID,103,VALID,0.630357,
2002-11-17, 00:41:00,VALID,917.79,VALID,0,VALID,98.3955,VALID,-0.0679233,VALID,19.6848,VALID,84,VALID,0.689286,
2002-11-17, 00:42:00,VALID,917.772,VALID,0,VALID,98.4146,VALID,-0.0169808,VALID,19.6836,VALID,60,VALID,0.625,
2002-11-17, 00:43:00,VALID,917.753,VALID,0,VALID,98.4362,VALID,0,VALID,19.6967,VALID,62,VALID,0.823438,
2002-11-17, 00:44:00,VALID,917.735,VALID,0,VALID,98.4196,VALID,-0.0339617,VALID,19.6975,VALID,57,VALID,0.829728,
2002-11-17, 00:45:00,VALID,917.732,VALID,0,VALID,98.3802,VALID,0,VALID,19.6875,VALID,32,VALID,1.03056,
2002-11-17, 00:46:00,VALID,917.709,VALID,0,VALID,98.351,VALID,-0.0169808,VALID,19.6682,VALID,26,VALID,0.831931,
2002-11-17, 00:47:00,VALID,917.708,VALID,0,VALID,98.3408,VALID,-0.0169808,VALID,19.6383,VALID,16,VALID,0.61183,
2002-11-17, 00:48:00,VALID,917.678,VALID,0,VALID,98.3713,VALID,-0.0169808,VALID,19.6292,VALID,11,VALID,0.522768,
2002-11-17, 00:49:00,VALID,917.648,VALID,0,VALID,98.3929,VALID,0,VALID,19.6259,VALID,344,VALID,0.552951,
2002-11-17, 00:50:00,VALID,917.622,VALID,0,VALID,98.4324,VALID,-0.0169808,VALID,19.6227,VALID,334,VALID,0.347545,
2002-11-17, 00:51:00,VALID,917.59,VALID,0,VALID,98.4654,VALID,0.0169808,VALID,19.6058,VALID,338,VALID,0.291266,
2002-11-17, 00:52:00,VALID,917.566,VALID,0,VALID,98.4985,VALID,0,VALID,19.6132,VALID,2,VALID,0.616958,
2002-11-17, 00:53:00,VALID,917.523,VALID,0,VALID,98.4909,VALID,-0.0169808,VALID,19.5936,VALID,358,VALID,0.712941,
2002-11-17, 00:54:00,VALID,917.497,VALID,0,VALID,98.5303,VALID,-0.0339617,VALID,19.5968,VALID,15,VALID,1.05714,
2002-11-17, 00:55:00,VALID,917.456,VALID,0,VALID,98.5697,VALID,-0.0339617,VALID,19.5941,VALID,13,VALID,1.47634,
2002-11-17, 00:56:00,VALID,917.443,VALID,0,VALID,98.6791,VALID,-0.0339617,VALID,19.6011,VALID,29,VALID,1.35482,
2002-11-17, 00:57:00,VALID,917.42,VALID,0,VALID,98.6778,VALID,-0.0509425,VALID,19.5616,VALID,42,VALID,1.39487,
2002-11-17, 00:58:00,VALID,917.405,VALID,0,VALID,98.7592,VALID,-0.0849042,VALID,19.5755,VALID,45,VALID,1.24479,
2002-11-17, 00:59:00,VALID,917.386,VALID,0,VALID,98.8227,VALID,-0.0169808,VALID,19.5583,VALID,32,VALID,1.06893,
2002-11-17, 01:00:00,VALID,917.369,VALID,0,VALID,98.8545,VALID,-0.0169808,VALID,19.5494,VALID,26,VALID,1.08734,
2002-11-17, 01:01:00,VALID,917.367,VALID,0,VALID,98.8876,VALID,-0.0509425,VALID,19.5327,VALID,21,VALID,1.03705,
2002-11-17, 01:02:00,VALID,917.349,VALID,0,VALID,98.941,VALID,-0.0509425,VALID,19.5198,VALID,18,VALID,1.01228,
2002-11-17, 01:03:00,VALID,917.348,VALID,0,VALID,98.9944,VALID,-0.0679233,VALID,19.523,VALID,24,VALID,1.10872,
2002-11-17, 01:04:00,VALID,917.352,VALID,0,VALID,99.0491,VALID,-0.0169808,VALID,19.5327,VALID,14,VALID,0.766518,
2002-11-17, 01:05:00,VALID,917.358,VALID,0,VALID,99.0593,VALID,-0.0679233,VALID,19.5265,VALID,27,VALID,0.961739,
2002-11-17, 01:06:00,VALID,917.356,VALID,0,VALID,99.0872,VALID,-0.0679233,VALID,19.5233,VALID,27,VALID,1.25138,
2002-11-17, 01:07:00,VALID,917.373,VALID,0,VALID,99.1139,VALID,-0.0339617,VALID,19.5193,VALID,17,VALID,0.814704,
2002-11-17, 01:08:00,VALID,917.354,VALID,0,VALID,99.1178,VALID,-0.0339617,VALID,19.5201,VALID,9,VALID,0.389062,
2002-11-17, 01:09:00,VALID,917.362,VALID,0,VALID,99.147,VALID,-0.0339617,VALID,19.5203,VALID,8,VALID,0.328125,
2002-11-17, 01:10:00,VALID,917.367,VALID,0,VALID,99.1712,VALID,-0.0679233,VALID,19.5265,VALID,5,VALID,0.354818,
2002-11-17, 01:11:00,VALID,917.393,VALID,0,VALID,99.175,VALID,-0.0849042,VALID,19.5265,VALID,5,VALID,0.0997768,
2002-11-17, 01:12:00,VALID,917.407,VALID,0,VALID,99.189,VALID,-0.0509425,VALID,19.5263,VALID,5,VALID,0.251803,
2002-11-17, 01:13:00,VALID,917.401,VALID,0,VALID,99.1877,VALID,-0.0169808,VALID,19.5134,VALID,5,VALID,0.241728,
2002-11-17, 01:14:00,VALID,917.395,VALID,0,VALID,99.2017,VALID,-0.0169808,VALID,19.533,VALID,335,VALID,0.317508,
2002-11-17, 01:15:00,VALID,917.39,VALID,0,VALID,99.2144,VALID,-0.0339617,VALID,19.5233,VALID,277,VALID,0.459152,
2002-11-17, 01:16:00,VALID,917.371,VALID,0,VALID,99.2309,VALID,0,VALID,19.5198,VALID,245,VALID,0.63058,
2002-11-17, 01:17:00,VALID,917.391,VALID,0,VALID,99.2538,VALID,0,VALID,19.5325,VALID,225,VALID,0.601563,
2002-11-17, 01:18:00,VALID,917.391,VALID,0,VALID,99.2704,VALID,-0.0169808,VALID,19.5422,VALID,211,VALID,0.357812,
2002-11-17, 01:19:00,VALID,917.385,VALID,0,VALID,99.2894,VALID,-0.0509425,VALID,19.5452,VALID,186,VALID,0.290465,
2002-11-17, 01:20:00,VALID,917.362,VALID,0,VALID,99.3021,VALID,0,VALID,19.5653,VALID,180,VALID,0.288603,
2002-11-17, 01:21:00,VALID,917.359,VALID,0,VALID,99.3161,VALID,-0.0169808,VALID,19.5715,VALID,176,VALID,0.285056,
2002-11-17, 01:22:00,VALID,917.353,VALID,0,VALID,99.3238,VALID,0,VALID,19.5877,VALID,142,VALID,0.229911,
2002-11-17, 01:23:00,VALID,917.333,VALID,0,VALID,99.3377,VALID,-0.0339617,VALID,19.6073,VALID,138,VALID,0.328125,
2002-11-17, 01:24:00,VALID,917.329,VALID,0,VALID,99.3403,VALID,-0.0509425,VALID,19.5939,VALID,132,VALID,0.437066,
2002-11-17, 01:25:00,VALID,917.323,VALID,0,VALID,99.3199,VALID,-0.0679233,VALID,19.578,VALID,127,VALID,0.40625,
2002-11-17, 01:26:00,VALID,917.303,VALID,0,VALID,99.311,VALID,-0.0679233,VALID,19.5745,VALID,131,VALID,0.352965,
2002-11-17, 01:27:00,VALID,917.286,VALID,0,VALID,99.3098,VALID,-0.0169808,VALID,19.5717,VALID,131,VALID,0.0395221,
2002-11-17, 01:28:00,VALID,917.282,VALID,0,VALID,99.3225,VALID,-0.0849042,VALID,19.5618,VALID,131,VALID,0,
2002-11-17, 01:29:00,VALID,917.256,VALID,0,VALID,99.3276,VALID,-0.0339617,VALID,19.5618,VALID,132,VALID,0.0808036,
2002-11-17, 01:30:00,VALID,917.239,VALID,0,VALID,99.3314,VALID,-0.0169808,VALID,19.5648,VALID,165,VALID,0.335268,
2002-11-17, 01:31:00,VALID,917.214,VALID,0,VALID,99.3276,VALID,-0.0679233,VALID,19.5521,VALID,213,VALID,0.512153,
2002-11-17, 01:32:00,VALID,917.207,VALID,0,VALID,99.3352,VALID,-0.0509425,VALID,19.536,VALID,203,VALID,0.693527,
2002-11-17, 01:33:00,VALID,917.185,VALID,0,VALID,99.339,VALID,-0.0339617,VALID,19.5166,VALID,208,VALID,0.547877,
2002-11-17, 01:34:00,VALID,917.176,VALID,0,VALID,99.3238,VALID,0,VALID,19.497,VALID,206,VALID,0.660386,
2002-11-17, 01:35:00,VALID,917.163,VALID,0,VALID,99.339,VALID,-0.0509425,VALID,19.4967,VALID,192,VALID,0.304087,
2002-11-17, 01:36:00,VALID,917.145,VALID,0,VALID,99.3352,VALID,-0.0679233,VALID,19.4937,VALID,176,VALID,0.469866,
2002-11-17, 01:37:00,VALID,917.131,VALID,0,VALID,99.3403,VALID,0,VALID,19.4878,VALID,167,VALID,0.474554,
2002-11-17, 01:38:00,VALID,917.089,VALID,0,VALID,99.3428,VALID,-0.0509425,VALID,19.4617,VALID,171,VALID,0.682075,
2002-11-17, 01:39:00,VALID,917.062,VALID,0,VALID,99.3505,VALID,-0.0679233,VALID,19.4515,VALID,168,VALID,0.598214,
2002-11-17, 01:40:00,VALID,917.042,VALID,0,VALID,99.3403,VALID,-0.0679233,VALID,19.4455,VALID,170,VALID,0.55008,
2002-11-17, 01:41:00,VALID,917.029,VALID,0,VALID,99.3454,VALID,-0.0509425,VALID,19.4388,VALID,168,VALID,0.620175,
2002-11-17, 01:42:00,VALID,917.018,VALID,0,VALID,99.3619,VALID,-0.0849042,VALID,19.4261,VALID,161,VALID,0.380409,
2002-11-17, 01:43:00,VALID,917.012,VALID,0,VALID,99.3606,VALID,-0.0509425,VALID,19.4294,VALID,143,VALID,0.364509,
2002-11-17, 01:44:00,VALID,917.02,VALID,0,VALID,99.3708,VALID,-0.0679233,VALID,19.4326,VALID,140,VALID,0.198214,
2002-11-17, 01:45:00,VALID,917.01,VALID,0,VALID,99.3734,VALID,-0.0849042,VALID,19.4291,VALID,140,VALID,0.0900608,
2002-11-17, 01:46:00,VALID,916.99,VALID,0,VALID,99.3873,VALID,-0.0679233,VALID,19.4328,VALID,141,VALID,0.0703125,
2002-11-17, 01:47:00,VALID,916.984,VALID,0,VALID,99.3975,VALID,-0.0849042,VALID,19.4393,VALID,199,VALID,0.374399,
2002-11-17, 01:48:00,VALID,916.997,VALID,0,VALID,99.3937,VALID,-0.0679233,VALID,19.4172,VALID,235,VALID,0.502987,
2002-11-17, 01:49:00,VALID,917,VALID,0,VALID,99.3861,VALID,-0.0849042,VALID,19.3839,VALID,235,VALID,0.397236,
2002-11-17, 01:50:00,VALID,917.005,VALID,0,VALID,99.4026,VALID,-0.0339617,VALID,19.3963,VALID,201,VALID,0.201786,
2002-11-17, 01:51:00,VALID,917.005,VALID,0,VALID,99.4013,VALID,0,VALID,19.3993,VALID,213,VALID,0.38058,
2002-11-17, 01:52:00,VALID,916.979,VALID,0,VALID,99.4191,VALID,0.0339617,VALID,19.4025,VALID,225,VALID,0.351997,
2002-11-17, 01:53:00,VALID,916.963,VALID,0,VALID,99.4229,VALID,0,VALID,19.3926,VALID,221,VALID,0.442187,
2002-11-17, 01:54:00,VALID,916.924,VALID,0,VALID,99.4242,VALID,0.0169808,VALID,19.406,VALID,220,VALID,0.264824,
2002-11-17, 01:55:00,VALID,916.923,VALID,0,VALID,99.4255,VALID,0,VALID,19.3991,VALID,220,VALID,0.292739,
2002-11-17, 01:56:00,VALID,916.917,VALID,0,VALID,99.4395,VALID,0.0169808,VALID,19.4125,VALID,214,VALID,0.21274,
2002-11-17, 01:57:00,VALID,916.911,VALID,0,VALID,99.4395,VALID,0,VALID,19.4125,VALID,175,VALID,0.315402,
2002-11-17, 01:58:00,VALID,916.924,VALID,0,VALID,99.4471,VALID,0.0509425,VALID,19.4021,VALID,165,VALID,0.241295,
2002-11-17, 01:59:00,VALID,916.913,VALID,0,VALID,99.4331,VALID,0.0169808,VALID,19.4055,VALID,153,VALID,0.485026,
2002-11-17, 02:00:00,VALID,916.903,VALID,0,VALID,99.4433,VALID,0.0169808,VALID,19.3988,VALID,159,VALID,0.291741,
2002-11-17, 02:01:00,VALID,916.877,VALID,0,VALID,99.4357,VALID,0.0169808,VALID,19.4095,VALID,162,VALID,0.376002,
2002-11-17, 02:02:00,VALID,916.857,VALID,0,VALID,99.4535,VALID,0,VALID,19.3988,VALID,155,VALID,0.412684,
2002-11-17, 02:03:00,VALID,916.837,VALID,0,VALID,99.4446,VALID,0.0339617,VALID,19.4028,VALID,156,VALID,0.606971,
2002-11-17, 02:04:00,VALID,916.811,VALID,0,VALID,99.4484,VALID,0.0509425,VALID,19.3988,VALID,138,VALID,0.602679,
2002-11-17, 02:05:00,VALID,916.789,VALID,0,VALID,99.4585,VALID,-0.0339617,VALID,19.3968,VALID,135,VALID,0.335491,
2002-11-17, 02:06:00,VALID,916.77,VALID,0,VALID,99.4636,VALID,-0.0509425,VALID,19.4264,VALID,120,VALID,0.184679,
2002-11-17, 02:07:00,VALID,916.749,VALID,0,VALID,99.4827,VALID,-0.0509425,VALID,19.4291,VALID,104,VALID,0.201562,
2002-11-17, 02:08:00,VALID,916.731,VALID,0,VALID,99.4827,VALID,-0.101885,VALID,19.4299,VALID,85,VALID,0.33774,
2002-11-17, 02:09:00,VALID,916.732,VALID,0,VALID,99.4853,VALID,-0.0679233,VALID,19.4428,VALID,39,VALID,0.408318,
2002-11-17, 02:10:00,VALID,916.708,VALID,0,VALID,99.4865,VALID,-0.0849042,VALID,19.4522,VALID,36,VALID,0.330729,
2002-11-17, 02:11:00,VALID,916.686,VALID,0,VALID,99.4891,VALID,-0.101885,VALID,19.4624,VALID,36,VALID,0.364286,
2002-11-17, 02:12:00,VALID,916.675,VALID,0,VALID,99.5056,VALID,-0.101885,VALID,19.4718,VALID,35,VALID,0.394866,
2002-11-17, 02:13:00,VALID,916.655,VALID,0,VALID,99.4992,VALID,-0.118866,VALID,19.4689,VALID,34,VALID,0.539714,
2002-11-17, 02:14:00,VALID,916.637,VALID,0,VALID,99.5018,VALID,-0.0849042,VALID,19.4684,VALID,33,VALID,0.465402,
2002-11-17, 02:15:00,VALID,916.638,VALID,0,VALID,99.4992,VALID,-0.0679233,VALID,19.4617,VALID,31,VALID,0.522837,
2002-11-17, 02:16:00,VALID,916.621,VALID,0,VALID,99.4903,VALID,-0.101885,VALID,19.4423,VALID,30,VALID,0.48943,
2002-11-17, 02:17:00,VALID,916.62,VALID,0,VALID,99.4891,VALID,-0.101885,VALID,19.4301,VALID,30,VALID,0.349559,
2002-11-17, 02:18:00,VALID,916.587,VALID,0,VALID,99.4891,VALID,-0.101885,VALID,19.4264,VALID,30,VALID,0.34442,
2002-11-17, 02:19:00,VALID,916.564,VALID,0,VALID,99.4903,VALID,-0.0509425,VALID,19.4197,VALID,30,VALID,0.256696,
2002-11-17, 02:20:00,VALID,916.554,VALID,0,VALID,99.4891,VALID,-0.0509425,VALID,19.442,VALID,30,VALID,0.307075,
2002-11-17, 02:21:00,VALID,916.543,VALID,0,VALID,99.4878,VALID,-0.0679233,VALID,19.4522,VALID,30,VALID,0.25,
2002-11-17, 02:22:00,VALID,916.529,VALID,0,VALID,99.4967,VALID,-0.0849042,VALID,19.4589,VALID,30,VALID,0.0584936,
2002-11-17, 02:23:00,VALID,916.51,VALID,0,VALID,99.498,VALID,-0.0679233,VALID,19.4689,VALID,29,VALID,0.0229779,
2002-11-17, 02:24:00,VALID,916.476,VALID,0,VALID,99.498,VALID,-0.0849042,VALID,19.4619,VALID,14,VALID,0.428085,
2002-11-17, 02:25:00,VALID,916.445,VALID,0,VALID,99.5043,VALID,-0.0679233,VALID,19.4589,VALID,4,VALID,0.30558,
2002-11-17, 02:26:00,VALID,916.427,VALID,0,VALID,99.5107,VALID,-0.0849042,VALID,19.4651,VALID,4,VALID,0.229018,
2002-11-17, 02:27:00,VALID,916.411,VALID,0,VALID,99.5056,VALID,-0.101885,VALID,19.4748,VALID,4,VALID,0.016276,
2002-11-17, 02:28:00,VALID,916.394,VALID,0,VALID,99.5145,VALID,-0.0339617,VALID,19.485,VALID,4,VALID,0,
2002-11-17, 02:29:00,VALID,916.382,VALID,0,VALID,99.5107,VALID,-0.0679233,VALID,19.4748,VALID,4,VALID,0,
2002-11-17, 02:30:00,VALID,916.375,VALID,0,VALID,99.5094,VALID,-0.0849042,VALID,19.4848,VALID,4,VALID,0.0147059,
2002-11-17, 02:31:00,VALID,916.362,VALID,0,VALID,99.5132,VALID,-0.0169808,VALID,19.5007,VALID,4,VALID,0.0995593,
2002-11-17, 02:32:00,VALID,916.355,VALID,0,VALID,99.5183,VALID,0,VALID,19.5066,VALID,4,VALID,0.237277,
2002-11-17, 02:33:00,VALID,916.338,VALID,0,VALID,99.517,VALID,-0.0679233,VALID,19.4806,VALID,1,VALID,0.434821,
2002-11-17, 02:34:00,VALID,916.34,VALID,0,VALID,99.498,VALID,-0.0849042,VALID,19.4714,VALID,353,VALID,0.311849,
2002-11-17, 02:35:00,VALID,916.322,VALID,0,VALID,99.5234,VALID,-0.0509425,VALID,19.4746,VALID,353,VALID,0.0620536,
2002-11-17, 02:36:00,VALID,916.305,VALID,0,VALID,99.5259,VALID,0,VALID,19.4612,VALID,353,VALID,0,
2002-11-17, 02:37:00,VALID,916.294,VALID,0,VALID,99.5234,VALID,-0.0169808,VALID,19.4681,VALID,353,VALID,0.00137868,
2002-11-17, 02:38:00,VALID,916.27,VALID,0,VALID,99.5259,VALID,-0.0509425,VALID,19.4741,VALID,353,VALID,0.251803,
2002-11-17, 02:39:00,VALID,916.278,VALID,0,VALID,99.5259,VALID,-0.0169808,VALID,19.487,VALID,1,VALID,0.437277,
2002-11-17, 02:40:00,VALID,916.267,VALID,0,VALID,99.5234,VALID,-0.0509425,VALID,19.4937,VALID,14,VALID,0.510045,
2002-11-17, 02:41:00,VALID,916.269,VALID,0,VALID,99.5285,VALID,-0.0339617,VALID,19.4739,VALID,13,VALID,0.564453,
2002-11-17, 02:42:00,VALID,916.264,VALID,0,VALID,99.5196,VALID,-0.0169808,VALID,19.4811,VALID,13,VALID,0.410268,
2002-11-17, 02:43:00,VALID,916.251,VALID,0,VALID,99.5209,VALID,-0.0339617,VALID,19.4674,VALID,10,VALID,0.326522,
2002-11-17, 02:44:00,VALID,916.241,VALID,0,VALID,99.5221,VALID,0,VALID,19.4453,VALID,7,VALID,0.0647978,
2002-11-17, 02:45:00,VALID,916.233,VALID,0,VALID,99.5272,VALID,0,VALID,19.4716,VALID,7,VALID,0.0416667,
2002-11-17, 02:46:00,VALID,916.225,VALID,0,VALID,99.5221,VALID,-0.0339617,VALID,19.4614,VALID,7,VALID,0.164063,
2002-11-17, 02:47:00,VALID,916.218,VALID,0,VALID,99.5298,VALID,-0.0169808,VALID,19.4612,VALID,7,VALID,0.179464,
2002-11-17, 02:48:00,VALID,916.22,VALID,0,VALID,99.5348,VALID,0,VALID,19.4741,VALID,7,VALID,0.284288,
2002-11-17, 02:49:00,VALID,916.222,VALID,0,VALID,99.5476,VALID,0,VALID,19.4806,VALID,7,VALID,0.290625,
2002-11-17, 02:50:00,VALID,916.197,VALID,0,VALID,99.5387,VALID,-0.0509425,VALID,19.497,VALID,7,VALID,0.155649,
2002-11-17, 02:51:00,VALID,916.202,VALID,0,VALID,99.5412,VALID,-0.0169808,VALID,19.5168,VALID,7,VALID,0.0480239,
2002-11-17, 02:52:00,VALID,916.205,VALID,0,VALID,99.5387,VALID,-0.0339617,VALID,19.5325,VALID,7,VALID,0.0010016,
2002-11-17, 02:53:00,VALID,916.21,VALID,0,VALID,99.545,VALID,-0.0339617,VALID,19.5551,VALID,7,VALID,0.00491071,
2002-11-17, 02:54:00,VALID,916.224,VALID,0,VALID,99.5425,VALID,-0.0169808,VALID,19.5519,VALID,7,VALID,0.0453125,
2002-11-17, 02:55:00,VALID,916.228,VALID,0,VALID,99.5348,VALID,-0.0169808,VALID,19.5258,VALID,7,VALID,0,
2002-11-17, 02:56:00,VALID,916.23,VALID,0,VALID,99.5196,VALID,0,VALID,19.5196,VALID,7,VALID,0,
2002-11-17, 02:57:00,VALID,916.251,VALID,0,VALID,99.5247,VALID,-0.0339617,VALID,19.5064,VALID,7,VALID,0,
2002-11-17, 02:58:00,VALID,916.261,VALID,0,VALID,99.5196,VALID,-0.0339617,VALID,19.4999,VALID,7,VALID,0.231388,
2002-11-17, 02:59:00,VALID,916.259,VALID,0,VALID,99.5298,VALID,-0.0169808,VALID,19.5166,VALID,7,VALID,0.217748,
2002-11-17, 03:00:00,VALID,916.285,VALID,0,VALID,99.5336,VALID,-0.0679233,VALID,19.5099,VALID,7,VALID,0.16875,
2002-11-17, 03:01:00,VALID,916.274,VALID,0,VALID,99.5259,VALID,-0.0169808,VALID,19.5138,VALID,7,VALID,0.293527,
2002-11-17, 03:02:00,VALID,916.287,VALID,0,VALID,99.5043,VALID,-0.0169808,VALID,19.4709,VALID,13,VALID,0.306424,
2002-11-17, 03:03:00,VALID,916.298,VALID,0,VALID,99.5196,VALID,0,VALID,19.4545,VALID,26,VALID,0.144196,
2002-11-17, 03:04:00,VALID,916.289,VALID,0,VALID,99.5234,VALID,0,VALID,19.4818,VALID,26,VALID,0.218149,
2002-11-17, 03:05:00,VALID,916.283,VALID,0,VALID,99.5285,VALID,-0.0339617,VALID,19.4743,VALID,29,VALID,0.277574,
2002-11-17, 03:06:00,VALID,916.266,VALID,0,VALID,99.5361,VALID,-0.0169808,VALID,19.4873,VALID,29,VALID,0.172075,
2002-11-17, 03:07:00,VALID,916.267,VALID,0,VALID,99.5425,VALID,-0.0509425,VALID,19.4808,VALID,29,VALID,0.506696,
2002-11-17, 03:08:00,VALID,916.25,VALID,0,VALID,99.5437,VALID,-0.0509425,VALID,19.4937,VALID,29,VALID,0.645089,
2002-11-17, 03:09:00,VALID,916.227,VALID,0,VALID,99.5425,VALID,-0.0339617,VALID,19.5071,VALID,28,VALID,0.764323,
2002-11-17, 03:10:00,VALID,916.192,VALID,0,VALID,99.5425,VALID,0,VALID,19.4873,VALID,18,VALID,0.78864,
2002-11-17, 03:11:00,VALID,916.192,VALID,0,VALID,99.5348,VALID,-0.0509425,VALID,19.4873,VALID,13,VALID,0.690705,
2002-11-17, 03:12:00,VALID,916.204,VALID,0,VALID,99.5412,VALID,-0.0339617,VALID,19.4845,VALID,9,VALID,0.58341,
2002-11-17, 03:13:00,VALID,916.219,VALID,0,VALID,99.5374,VALID,-0.0169808,VALID,19.4709,VALID,9,VALID,0.322516,
2002-11-17, 03:14:00,VALID,916.195,VALID,0,VALID,99.5361,VALID,0,VALID,19.4515,VALID,9,VALID,0.13817,
2002-11-17, 03:15:00,VALID,916.217,VALID,0,VALID,99.5476,VALID,-0.0339617,VALID,19.4843,VALID,9,VALID,0.132366,
2002-11-17, 03:16:00,VALID,916.211,VALID,0,VALID,99.5488,VALID,-0.0679233,VALID,19.4972,VALID,9,VALID,0,
2002-11-17, 03:17:00,VALID,916.218,VALID,0,VALID,99.545,VALID,-0.0339617,VALID,19.4999,VALID,9,VALID,0,
2002-11-17, 03:18:00,VALID,916.213,VALID,0,VALID,99.5552,VALID,-0.0509425,VALID,19.5037,VALID,9,VALID,0,
2002-11-17, 03:19:00,VALID,916.196,VALID,0,VALID,99.5565,VALID,-0.0169808,VALID,19.4873,VALID,9,VALID,0,
2002-11-17, 03:20:00,VALID,916.177,VALID,0,VALID,99.5437,VALID,-0.0339617,VALID,19.4873,VALID,9,VALID,0,
2002-11-17, 03:21:00,VALID,916.173,VALID,0,VALID,99.5488,VALID,-0.0679233,VALID,19.4937,VALID,9,VALID,0,
2002-11-17, 03:22:00,VALID,916.151,VALID,0,VALID,99.5488,VALID,-0.0509425,VALID,19.5134,VALID,9,VALID,0,
2002-11-17, 03:23:00,VALID,916.136,VALID,0,VALID,99.5552,VALID,-0.0169808,VALID,19.5521,VALID,10,VALID,0.437934,
2002-11-17, 03:24:00,VALID,916.14,VALID,0,VALID,99.559,VALID,-0.0169808,VALID,19.568,VALID,10,VALID,0.425,
2002-11-17, 03:25:00,VALID,916.125,VALID,0,VALID,99.559,VALID,-0.0169808,VALID,19.5874,VALID,21,VALID,0.451723,
2002-11-17, 03:26:00,VALID,916.129,VALID,0,VALID,99.5488,VALID,-0.0509425,VALID,19.5785,VALID,33,VALID,0.548943,
2002-11-17, 03:27:00,VALID,916.151,VALID,0,VALID,99.5488,VALID,-0.0509425,VALID,19.5613,VALID,50,VALID,0.514824,
2002-11-17, 03:28:00,VALID,916.144,VALID,0,VALID,99.5323,VALID,-0.0169808,VALID,19.5553,VALID,50,VALID,0.40558,
2002-11-17, 03:29:00,VALID,916.157,VALID,0,VALID,99.5158,VALID,-0.0509425,VALID,19.5429,VALID,50,VALID,0.26808,
2002-11-17, 03:30:00,VALID,916.155,VALID,0,VALID,99.5081,VALID,0,VALID,19.5161,VALID,67,VALID,0.261285,
2002-11-17, 03:31:00,VALID,916.151,VALID,0,VALID,99.5081,VALID,-0.0339617,VALID,19.5233,VALID,27,VALID,0.155804,
2002-11-17, 03:32:00,VALID,916.146,VALID,0,VALID,99.5043,VALID,0,VALID,19.5163,VALID,8,VALID,0.0472756,